EHI
26 26 25 23 26 32 35 33 33 36 37 31 23 17 13 10 9 11 15 15 12 10 7 6 7 7 9 12 11 10 9 8 5 3 3 4 5 6 8 10 12 11 9
34 33 30 27 29 33 35 34 34 36 36 32 25 19 15 13 12 13 17 16 13 11 10 10 10 10 12 15 15 13 11 8 6 5 5 6 7 7 6 8 12 14 14
38 38 36 33 32 34 34 35 37 38 37 34 26 20 17 16 16 18 19 18 17 15 13 14 15 14 16 18 18 16 12 8 7 7 6 7 7 6 4 4 9 15 17
35 38 39 37 35 34 35 37 39 40 39 33 25 19 17 16 18 22 22 22 21 19 16 16 17 17 17 18 18 15 12 10 9 8 7 6 6 5 4 2 5 10 12
32 35 39 39 36 34 36 38 40 42 40 33 23 17 16 15 16 20 23 24 23 21 17 16 18 18 16 17 18 17 14 12 12 10 7 6 7 7 5 2 3 5 7
31 33 37 39 36 35 37 38 40 43 40 31 22 17 16 15 15 18 21 23 23 22 19 17 19 19 17 18 21 22 19 16 13 11 8 7 8 8 6 4 3 4 4
30 33 37 39 38 38 39 39 42 43 39 31 24 20 20 19 19 19 20 22 21 21 19 19 21 20 18 20 24 26 24 19 14 11 10 9 9 9 8 6 5 4 3
30 33 35 37 39 40 40 42 45 44 39 34 29 26 25 23 21 21 20 19 18 18 19 20 21 21 19 18 21 24 24 21 17 13 12 11 9 8 9 8 6 3 3
29 30 30 31 35 39 40 45 48 46 41 36 32 30 29 25 21 20 19 18 16 17 20 21 22 23 20 18 17 18 20 20 17 14 12 11 10 8 8 9 7 5 3
28 29 28 28 31 35 39 45 49 47 42 38 34 31 31 28 22 19 19 20 19 18 19 22 24 25 23 21 17 15 16 17 15 12 12 12 10 9 8 8 8 7 6
30 31 32 32 31 32 37 42 44 43 41 39 36 34 33 30 25 21 21 23 22 21 21 22 25 25 24 22 19 15 15 16 14 12 12 12 12 10 9 8 8 8 8
35 36 37 37 36 33 34 38 39 38 38 39 38 37 36 32 28 26 26 26 26 25 25 24 25 24 23 23 20 17 17 16 14 14 14 13 12 11 10 8 8 7 7
38 37 38 40 40 39 39 39 38 37 37 38 37 36 34 31 30 32 32 32 31 30 29 27 25 23 21 22 22 20 18 16 15 15 15 14 12 12 12 10 8 7 6
39 38 39 42 46 46 45 42 39 38 37 37 36 34 32 31 32 35 36 35 34 33 32 30 27 24 21 20 21 20 18 17 14 13 14 14 12 12 12 10 9 7 6
38 41 42 45 49 50 47 42 40 40 38 38 37 35 34 34 35 36 36 35 34 33 33 31 27 23 20 17 16 17 18 17 14 12 11 11 11 11 10 9 8 8 7
39 41 42 44 47 48 46 42 42 42 40 38 39 39 38 37 35 34 33 32 32 31 30 29 25 22 18 14 11 13 16 17 16 14 11 9 9 9 7 6 5 5 5
40 39 40 41 43 44 43 43 42 42 40 37 37 38 38 36 34 31 30 29 29 30 29 27 23 20 16 10 7 7 11 15 16 16 13 9 8 8 7 4 3 3 3
41 41 40 39 40 41 40 40 42 40 36 34 35 35 34 33 32 30 28 28 29 31 30 26 22 19 14 7 3 3 6 10 13 12 10 9 8 6 5 4 4 4 4
41 42 40 38 40 42 42 41 41 38 33 31 32 31 30 30 30 30 29 30 32 32 29 25 21 17 11 5 1 1 3 6 9 8 7 8 7 4 2 4 6 7 5
39 40 38 37 40 45 45 44 41 36 31 29 30 30 29 28 29 30 29 30 31 29 24 21 18 15 9 3 0 0 1 4 6 6 5 5 5 3 1 2 4 5 5
39 37 36 38 42 45 45 44 39 35 32 30 30 31 30 26 26 29 30 29 29 26 22 18 16 14 9 3 0 0 0 1 2 3 3 2 2 1 0 0 1 2 2
39 37 37 39 41 42 42 41 39 37 37 34 31 30 28 24 24 29 30 29 28 26 22 17 14 12 9 5 1 0 0 0 0 0 1 1 0 0 0 0 0 0 0
37 38 39 38 38 38 38 38 38 40 40 36 32 29 26 24 25 27 25 24 24 23 20 16 14 11 11 8 3 0 0 0 0 0 0 0 0 0 0 0 0 0 0
35 37 38 35 34 35 35 34 36 38 36 33 30 27 25 24 23 20 14 13 15 16 16 14 12 12 13 10 4 1 0 0 0 0 0 0 0 0 0 0 0 0 0
33 33 33 30 29 31 31 31 33 34 31 28 25 22 20 18 17 12 7 5 6 8 9 9 9 9 10 8 4 1 0 0 0 0 0 0 0 0 1 1 1 0 0
33 31 29 27 24 26 29 30 31 32 30 25 21 19 16 14 13 9 5 2 2 3 4 4 4 4 4 4 3 1 0 0 0 0 0 0 0 1 2 2 2 1 0
Wind_Speed
11 11 11 11 11 10 8 7 6 6 4 3 3 3 2 2 2 2 3 3 2 2 1 0 0 0 0 0 0 0 1 1 0 0 0 1 2 2 2 2 2 3 3
12 11 11 10 11 10 9 8 7 6 5 4 3 3 3 2 2 2 3 2 2 2 1 0 0 0 0 1 0 0 1 1 0 0 1 0 0 0 1 2 3 3 3
13 12 11 10 11 11 10 8 7 6 6 6 4 3 2 1 2 2 2 1 1 1 1 1 0 0 0 1 1 1 1 1 1 0 1 0 0 0 0 1 1 2 2
13 13 12 11 11 11 11 9 8 7 6 5 5 5 4 3 3 3 3 3 2 2 1 1 0 0 0 0 1 0 1 1 1 1 1 0 0 1 0 1 1 2 2
13 13 12 11 11 11 12 10 9 7 6 5 5 4 4 3 3 3 3 3 2 2 1 2 1 1 0 0 1 1 1 1 1 1 1 1 1 1 1 0 0 0 1
11 11 11 10 10 11 11 11 10 8 7 7 6 4 4 3 3 3 3 2 2 2 2 2 1 1 0 0 0 0 0 1 2 2 2 1 1 1 1 1 1 1 0
11 11 11 11 9 10 11 11 11 9 8 8 6 6 4 4 4 3 3 3 2 2 2 2 2 1 1 1 1 1 1 1 2 2 2 2 2 2 1 1 1 0 0
10 10 11 11 10 10 10 11 11 9 8 7 5 5 5 4 3 3 3 2 1 2 3 2 2 2 1 1 1 1 1 1 2 2 2 2 2 2 1 0 0 1 0
10 10 10 11 11 11 10 11 11 9 9 8 6 5 4 3 3 3 3 2 2 2 3 3 2 2 1 1 1 1 1 1 1 1 1 1 1 2 1 0 0 1 1
9 9 9 9 10 10 10 10 10 9 8 8 7 6 5 3 3 2 2 1 1 1 2 2 2 2 1 1 1 1 0 0 1 1 1 1 2 1 1 1 1 0 1
8 8 7 8 10 10 10 10 9 8 7 7 6 5 6 5 4 3 2 2 1 2 2 2 2 2 2 2 1 2 1 1 1 1 1 1 2 2 2 1 1 1 0
6 6 7 7 7 9 10 10 9 9 7 6 6 5 5 5 5 4 3 3 2 2 2 2 2 3 2 2 2 2 1 1 1 1 1 1 1 1 1 1 1 1 1
6 6 6 6 6 6 7 8 9 9 8 7 7 6 6 5 5 4 4 3 3 2 2 2 2 2 2 2 2 2 2 1 1 1 1 1 1 1 1 1 2 2 2
5 5 5 5 5 5 5 6 6 7 8 8 7 6 5 4 4 3 3 3 3 3 2 2 2 2 2 2 2 2 2 2 2 1 1 1 1 0 1 1 2 2 2
5 5 5 4 5 4 4 4 4 4 5 6 7 6 5 5 4 4 4 3 3 3 2 2 2 3 3 2 2 3 3 3 3 2 2 1 1 1 1 1 1 2 1
6 6 6 6 6 5 5 4 4 4 4 4 5 5 5 5 5 4 4 3 3 2 2 3 3 3 3 1 1 2 2 2 3 2 2 2 2 2 1 2 2 2 2
4 6 6 6 6 5 5 5 4 4 4 4 4 4 4 4 4 4 4 3 3 3 3 2 2 2 1 2 1 2 3 3 3 3 3 3 2 2 2 3 4 3 4
4 5 5 6 7 6 6 5 5 5 5 4 4 4 3 3 3 3 3 3 2 2 2 2 2 2 2 2 3 3 4 4 3 3 3 3 2 2 1 2 2 2 2
2 4 4 6 6 6 6 5 5 5 4 4 4 4 4 3 4 4 3 3 2 2 2 2 2 2 2 2 3 3 3 3 4 3 3 3 2 1 1 2 2 3 3
2 2 2 4 5 5 6 6 5 4 4 4 3 3 4 4 3 3 3 3 3 3 3 2 2 2 2 3 3 3 3 3 2 1 1 2 1 1 1 2 2 3 3
3 2 2 2 3 4 5 5 5 4 3 3 3 3 3 3 4 3 3 3 3 3 3 3 3 3 3 4 5 3 2 2 2 2 1 1 2 1 2 3 3 3 4
3 3 3 3 3 3 4 4 4 3 3 3 3 3 3 4 3 3 3 3 4 4 4 4 3 2 3 3 5 5 4 3 3 2 1 1 1 2 4 4 4 5 4
3 3 2 3 3 2 3 3 3 3 3 2 2 2 2 2 2 3 3 3 4 4 3 3 2 2 3 3 4 4 3 3 2 2 2 1 3 3 4 5 6 4 3
2 2 2 2 2 2 2 2 3 3 3 2 2 2 2 2 1 1 2 2 2 1 1 1 1 1 2 2 2 2 2 2 1 1 1 3 5 5 4 3 4 4 3
1 2 2 2 2 1 1 2 2 2 2 2 2 2 2 2 2 1 1 1 1 1 2 2 1 1 1 2 3 2 1 1 0 1 2 3 3 2 2 2 2 2 2
1 1 2 1 1 1 1 1 2 2 2 3 3 3 2 2 2 2 1 3 1 2 2 2 2 1 3 5 4 3 2 2 2 2 3 4 3 3 3 3 2 2 2
Wind_Direction
157 148 151 148 146 145 148 153 154 153 151 151 161 154 150 153 149 151 133 133 140 141 160 338 77 254 128 171 192 73 318 284 225 313 236 206 191 186 178 175 170 153 161
156 152 156 156 154 154 154 160 163 161 158 157 160 157 155 160 161 139 126 145 157 165 171 185 228 286 106 72 18 354 296 278 183 250 275 242 149 247 176 154 158 158 155
160 160 165 162 160 160 162 162 160 165 167 164 165 156 148 156 144 141 138 160 161 160 255 147 204 284 167 128 187 230 256 288 298 278 292 311 76 340 292 148 120 129 138
163 164 167 167 167 164 161 156 159 164 166 169 172 173 165 164 167 158 155 173 172 179 195 147 163 288 34 73 269 105 274 283 299 305 290 234 139 184 188 343 99 128 136
163 165 168 167 166 164 160 156 157 161 165 171 175 181 168 169 152 151 160 176 173 174 174 156 176 188 155 71 356 20 353 336 314 303 295 280 245 220 178 215 303 69 113
158 161 160 158 165 163 159 157 157 162 167 175 179 176 177 175 156 168 172 190 183 167 177 163 167 175 201 137 253 310 306 317 312 308 305 297 293 270 193 196 211 186 216
157 160 158 162 169 166 161 157 157 163 171 175 178 172 182 183 174 179 188 203 189 173 173 172 163 179 204 207 195 236 296 284 292 293 303 309 314 314 291 188 237 257 202
157 160 160 161 165 166 159 156 156 160 167 169 173 175 187 190 186 200 204 197 196 166 161 169 165 182 210 222 224 235 243 282 282 289 308 310 313 315 321 179 174 281 332
151 159 162 163 164 163 161 159 154 160 166 168 168 174 180 183 189 192 201 192 192 184 159 171 170 179 189 225 234 247 273 310 284 290 299 296 307 312 322 23 202 205 265
150 156 159 157 158 159 158 152 153 161 167 168 176 174 171 179 191 201 179 194 172 177 169 178 177 175 179 209 211 254 265 326 302 294 330 313 308 316 340 350 316 319 189
151 151 150 151 154 155 156 156 157 161 169 171 169 164 172 179 178 180 177 174 185 178 175 177 180 175 181 196 198 237 221 237 278 285 307 314 331 340 337 348 339 341 77
124 131 137 139 146 154 156 156 160 164 171 168 164 169 171 174 179 176 173 178 184 191 173 176 190 201 197 191 212 242 231 232 260 275 288 294 314 340 343 344 331 325 303
124 126 128 131 138 144 150 155 164 165 170 168 167 170 181 179 181 174 172 175 178 185 180 181 203 220 210 205 221 234 246 233 239 243 252 269 287 333 343 323 324 318 318
124 127 116 115 121 124 132 145 157 160 162 164 168 176 186 175 175 169 171 176 181 189 186 193 212 225 209 220 233 232 243 243 254 267 257 256 250 278 288 286 309 309 307
149 139 132 129 128 128 131 136 147 147 154 160 166 176 176 170 172 172 174 178 189 196 188 200 215 227 221 223 228 234 228 227 234 242 254 249 113 52 312 288 296 293 284
168 159 151 143 140 142 143 148 150 145 147 154 161 164 171 172 177 176 174 179 192 192 199 212 221 232 242 207 199 232 244 242 242 239 238 219 191 200 241 267 275 257 247
170 166 160 151 149 151 153 159 152 150 154 157 157 162 168 169 174 180 173 177 192 199 206 219 226 229 220 186 204 248 249 244 235 232 238 254 241 195 230 249 249 256 255
174 163 162 159 161 159 157 158 158 159 165 163 162 162 170 173 172 177 189 191 192 202 208 207 221 220 218 210 223 247 244 247 241 233 230 231 245 234 260 273 265 259 264
149 156 169 168 162 160 157 159 162 165 166 169 173 172 177 185 189 194 201 194 190 204 209 196 199 200 202 200 221 241 255 247 248 236 226 214 214 168 270 261 266 273 272
96 130 142 145 149 150 155 162 167 169 179 184 181 180 182 193 199 193 190 193 197 202 204 198 193 199 177 178 199 220 264 263 261 242 215 150 141 145 291 274 278 278 283
98 99 103 129 142 148 157 165 164 178 177 166 172 180 184 198 197 194 194 204 206 205 206 206 200 194 184 174 184 196 262 294 295 278 244 146 148 190 249 270 266 267 284
84 80 74 81 112 137 152 160 161 162 155 164 175 182 196 220 202 189 202 213 210 214 210 205 204 185 169 168 184 197 219 272 299 297 307 161 195 242 257 258 257 268 280
65 78 82 88 96 113 130 151 144 143 153 170 185 192 200 212 190 194 213 223 217 222 218 200 198 180 151 139 148 182 218 246 269 320 7 291 246 263 255 244 245 252 255
61 73 95 109 98 95 110 120 130 143 158 172 189 195 204 202 183 212 237 237 229 222 228 211 212 191 143 130 134 159 187 213 236 288 318 284 262 255 254 250 238 235 245
71 88 102 108 110 107 132 131 124 139 167 177 200 217 224 202 188 203 275 258 213 215 216 241 232 214 193 167 170 183 209 226 229 279 258 257 250 232 228 237 238 233 239
97 99 114 120 147 147 117 112 136 152 188 199 211 227 220 202 204 192 172 30 48 136 162 180 183 166 156 157 167 182 204 226 211 228 251 252 248 243 239 238 233 239 245